SL-8 DEB, 2334

Orbit data source: Space-Track

SL-8 DEB, 2334 is space debris in LEO originally from a launch on Mon, 15 Mar 1965 UTC launched from the Tyuratam Missile And Space Complex (TTMTR). Debris objects in space refer to the collection of defunct objects orbiting the Earth. Examples of debris include non-operational satellites, rocket bodies, and fragments generated from explosions, collisions, or faulty payload assembly.

Loading next visibility...
Identifier
2334, 1965-020EH
Orbit
LEO
Country
Flag of CISCIS
Related business
Manufacturer
Unknown
Mission
Spacecraft
Bus & Motor
Unknown
Mass
Unknown
Launch date (UTC)
1965-03-15 (61 years ago)
Launch vehicle
Unknown
Launch site
Tyuratam Missile And Space Complex (TTMTR)
Object type
Payload
Rocket body
Debris
Shape & HBR
Unknown shape, 0.1 m
Radar Cross Section
Medium (>0.1 m² and <1 m²)

Expand to show TLE details & history
Last TLE update: 1 day ago

TLE from 1 day ago
0 SL-8 DEB
1 02334U 65020EH  26173.74520231 -.00000287  00000-0 -19840-3 0  9992
2 02334  55.6725 306.6782 0584077  27.8607 335.2351 13.12273162851674
Epoch: 2026-06-22T17:53Z
TLE epoch observation values (Epoch: 2026-06-22T17:53:05.479Z)
Latitude
-0.00003°
Longitude
127.47864°
Altitude
817.673 km
Speed
7.637 km/s
True Right ascension
20h 26m 42s
True Declination
0° 00' 00"
Sunlit
Object was in full shadow at epoch
Visualization orbit readout
Latitude
Unknown
Longitude
Unknown
Altitude
Unknown
Speed
Unknown
Apparent Right ascension
Unknown
Apparent Declination
Unknown
Sunlit
N/A
Visualization observer readout
Local Sidereal Time
11:30:07
Azimuth
Unknown
Elevation
Unknown
Doppler factor
Unknown
Orbital elements
Apogee altitude
1,657.703 km
Perigee altitude
770.795 km
Semi-major axis
7,592.386 km
Eccentricity
0.05841
Inclination
55.6725°
RAAN
306.6782°
Arg. of periapsis
27.8607°
True anomaly
332.23435°
Mean anomaly
335.2351°
Eccentric anomaly
333.75525°
Mean motion
3.28077 °/min
Orbital period
109.73 mins
BSTAR
-0.0001984
Loading maneuver chart data...
Computing Atmospheric mass density...
Loading historical data...
Loading historical data...
Loading historical data...
Loading historical data...
Loading historical data...
Loading historical data...
Loading historical data...

Documentation

Showing up to 5 results
|